Location: Marysville Observatory
(48.1092°N, 122.1645°W)
Time: 17:43:25
(UTC-07:00)

Amateur Radio Satellites - All Passes

Search period start: 24 July 2017 17:13
Search period end: 25 July 2017 17:13
Location: Marysville Observatory, 48.1092°N, 122.1645°W

Satellite Date Start Highest point End Downlink Frequencies (MHz)
Time Altitude Azimuth
BEESAT 2 24 Jul 17:15:17 17:16:17 11° 340° (NNW) 17:17:17 435.950
ITUPSAT 1 24 Jul 17:21:24 17:25:48 38° 293° (WNW) 17:30:09 437.325
KKS-1 24 Jul 17:22:16 17:25:59 25° 94° (E) 17:29:41 437.445
XW-2D 24 Jul 17:28:31 17:31:31 23° 66° (ENE) 17:34:31 145.860 - 145.880
XW-2B 24 Jul 17:38:17 17:41:30 28° 68° (ENE) 17:44:44 145.730 - 145.750
STARS 24 Jul 17:53:40 17:57:11 23° 93° (E) 18:00:40 437.465
YUBILEINY 24 Jul 17:53:45 18:00:04 23° 77° (ENE) 18:06:23 435.215
DOVE 4 24 Jul 17:54:05 17:59:00 78° 257° (WSW) 18:04:14 437.250
XW-2C 24 Jul 17:55:12 17:58:46 42° 71° (ENE) 18:02:20 145.795 - 145.815
NUDT-PHONESAT 24 Jul 18:05:05 18:08:33 41° 71° (ENE) 18:12:02 437.300
HO-68 24 Jul 18:06:13 18:12:21 32° 56° (ENE) 18:18:30 435.675
CUTE 1.7 + AOD 2 24 Jul 18:06:27 18:08:27 13° 59° (ENE) 18:10:28 437.475
RS-15 24 Jul 18:14:04 18:26:19 66° 317° (NW) 18:38:37 29.354- 29.394
MOZHAYETS 4 24 Jul 18:15:12 18:17:56 16° 301° (WNW) 18:20:39
LilacSat-2 24 Jul 18:17:46 18:21:32 83° 75° (ENE) 18:25:20 437.200
KAITUO 1B 24 Jul 18:18:32 18:22:10 61° 74° (ENE) 18:25:50 145.475/437.950
SEEDS 24 Jul 18:20:08 18:21:41 12° 58° (ENE) 18:23:14 437.485
O/OREOS (USA 219) 24 Jul 18:24:40 18:26:02 11° 321° (NW) 18:27:23 437.305
NO-84 24 Jul 18:30:16 18:34:00 55° 218° (SW) 18:38:01 435.350 FM
XW-2F 24 Jul 18:33:18 18:37:02 72° 258° (WSW) 18:40:46 145.980 - 146.000
UWE-3 24 Jul 18:40:35 18:41:58 11° 57° (ENE) 18:43:20 435.000/436.395/437.385
CUBESAT XI-V 24 Jul 18:47:23 18:51:28 31° 294° (WNW) 18:55:33 437.345
CUTE-I 24 Jul 18:49:08 18:54:28 65° 258° (WSW) 18:59:51 437.470
KKS-1 24 Jul 18:58:29 19:02:40 39° 292° (WNW) 19:06:49 437.445
XW-2D 24 Jul 19:02:13 19:05:35 31° 264° (W) 19:08:57 145.860 - 145.880
AAUSAT CUBESAT 2 24 Jul 19:04:02 19:06:30 16° 61° (ENE) 19:08:59 437.432
XW-2B 24 Jul 19:12:33 19:15:41 25° 265° (W) 19:18:51 145.730 - 145.750
CUBEBUG 2 24 Jul 19:14:34 19:18:48 35° 68° (ENE) 19:22:58 437.445
Oscar 11 24 Jul 19:22:31 19:23:43 11° 57° (ENE) 19:24:57 .
STARS 24 Jul 19:29:31 19:33:42 42° 291° (WNW) 19:37:50 437.465
XW-2A 24 Jul 19:30:02 19:33:19 50° 73° (ENE) 19:36:36 145.665 - 145.685
XW-2C 24 Jul 19:30:44 19:33:11 16° 269° (W) 19:35:37 145.795 - 145.815
AO-73 24 Jul 19:33:59 19:36:58 18° 62° (ENE) 19:39:54 145.935
DOVE 4 24 Jul 19:36:09 19:37:37 11° 277° (W) 19:39:06 437.250
CUTE 1.7 + AOD 2 24 Jul 19:39:31 19:43:42 78° 256° (WSW) 19:47:56 437.475
NUDT-PHONESAT 24 Jul 19:40:14 19:42:39 16° 269° (W) 19:45:04 437.300
YUBILEINY 24 Jul 19:46:49 19:55:41 89° 276° (W) 20:04:35 435.215
STRAND 1 24 Jul 19:47:33 19:51:43 25° 93° (E) 19:55:51 437.568
HO-68 24 Jul 19:52:31 19:59:39 65° 257° (WSW) 20:06:49 435.675
SEEDS 24 Jul 19:52:34 19:56:43 87° 251° (WSW) 20:00:55 437.485
BEESAT 3 24 Jul 19:54:11 19:56:42 16° 29° (NNE) 19:59:12 437.485
KAITUO 1B 24 Jul 19:55:17 19:56:35 11° 271° (W) 19:57:53 145.475/437.950
NO-84 24 Jul 20:10:17 20:10:54 10° 234° (SW) 20:11:31 435.350 FM
UWE-3 24 Jul 20:13:07 20:17:42 77° 74° (ENE) 20:22:10 435.000/436.395/437.385
ZACube-1 24 Jul 20:27:56 20:32:20 63° 73° (ENE) 20:36:38 437.345
AO-85 24 Jul 20:29:15 20:32:45 26° 39° (NE) 20:36:25 145.980
RS-15 24 Jul 20:30:22 20:41:37 38° 348° (NNW) 20:52:42 29.354- 29.394
BEESAT 2 24 Jul 20:33:05 20:35:30 15° 28° (NNE) 20:37:55 435.950
AAUSAT CUBESAT 2 24 Jul 20:37:27 20:41:30 61° 259° (W) 20:45:37 437.432
EO-88 24 Jul 20:44:37 20:45:22 10° 59° (ENE) 20:46:05 145.990 - 145.960
CUBEBUG 2 24 Jul 20:51:18 20:55:26 30° 265° (W) 20:59:30 437.445
Oscar 11 24 Jul 20:54:50 20:59:07 81° 77° (ENE) 21:03:27 .
XW-2A 24 Jul 21:05:06 21:06:21 12° 270° (W) 21:07:36 145.665 - 145.685
AO-73 24 Jul 21:08:28 21:12:49 57° 260° (W) 21:17:06 145.935
ISS 24 Jul 21:12:50 21:15:03 17° 138° (SE) 21:17:17 437.550
STRAND 1 24 Jul 21:26:13 21:31:10 50° 291° (WNW) 21:36:04 437.568
BEESAT 3 24 Jul 21:30:57 21:35:00 72° 51° (NE) 21:38:57 437.485
Tancredo 1 24 Jul 21:39:15 21:42:08 57° 152° (SSE) 21:45:02 437.200
FO-29 24 Jul 21:41:50 21:47:45 27° 88° (E) 21:53:06 435.910
DELFI C3 24 Jul 21:42:57 21:46:51 70° 75° (ENE) 21:50:48 145.870
HO-68 24 Jul 21:45:57 21:48:47 12° 277° (W) 21:51:38 435.675
YUBILEINY 24 Jul 21:47:02 21:53:50 24° 302° (WNW) 22:00:43 435.215
UWE-3 24 Jul 21:52:29 21:54:39 13° 272° (W) 21:56:49 435.000/436.395/437.385
nSIGHT-1 24 Jul 21:54:20 21:57:20 36° 146° (SE) 22:00:20 .
ESTCUBE 1 24 Jul 22:01:26 22:02:42 11° 55° (NE) 22:03:58 437.505/2401.250
ZACube-1 24 Jul 22:06:21 22:09:00 15° 270° (W) 22:11:36 437.345
TIGRISAT 24 Jul 22:08:30 22:11:07 16° 89° (E) 22:13:42 435.000
AO-85 24 Jul 22:09:18 22:13:20 51° 237° (WSW) 22:17:39 145.980
BEESAT 2 24 Jul 22:09:58 22:14:02 65° 50° (NE) 22:18:02 435.950
EO-88 24 Jul 22:14:49 22:18:27 78° 257° (WSW) 22:22:07 145.990 - 145.960
LO-87 24 Jul 22:21:10 22:23:45 19° 65° (ENE) 22:26:22 145.935 - 145.965
Oscar 11 24 Jul 22:34:25 22:35:51 11° 273° (W) 22:37:17 .
RS-15 24 Jul 22:46:32 22:58:05 42° 22° (NNE) 23:09:10 29.354- 29.394
ISS 24 Jul 22:47:53 22:51:09 85° 155° (SSE) 22:54:24 437.550
UNISAT 6 24 Jul 22:59:33 23:03:50 53° 100° (E) 23:08:01 437.425
PRISM 24 Jul 23:01:42 23:05:44 46° 99° (E) 23:09:45 437.425
BEESAT 3 24 Jul 23:09:54 23:12:02 14° 249° (WSW) 23:14:09 437.485
Tancredo 1 24 Jul 23:14:46 23:17:38 44° 351° (N) 23:20:28 437.200
DELFI C3 24 Jul 23:20:44 23:22:06 11° 272° (W) 23:23:29 145.870
FO-29 24 Jul 23:26:11 23:33:29 68° 290° (WNW) 23:39:55 435.910
nSIGHT-1 24 Jul 23:30:27 23:33:39 58° 345° (NNW) 23:36:52 .
O/OREOS (USA 219) 24 Jul 23:30:48 23:32:24 12° 40° (NE) 23:34:01 437.305
ESTCUBE 1 24 Jul 23:34:15 23:38:43 76° 73° (ENE) 23:43:13 437.505/2401.250
SPROUT 24 Jul 23:38:18 23:41:47 24° 64° (ENE) 23:45:16 437.525
QB50P2 24 Jul 23:41:38 23:42:11 10° 87° (E) 23:42:45 145.880/145.840
TIGRISAT 24 Jul 23:43:57 23:48:14 59° 288° (WNW) 23:52:26 435.000
BEESAT 2 24 Jul 23:48:47 23:51:19 16° 248° (WSW) 23:53:50 435.950
EO-79 24 Jul 23:52:35 23:54:26 13° 88° (E) 23:56:17 145.935-145.965
NANOSAT C BR1 24 Jul 23:53:09 23:54:33 11° 87° (E) 23:55:55 145.865
LO-87 24 Jul 23:53:32 23:56:57 37° 262° (W) 00:00:23 145.935 - 145.965
M-CUBED/EXP-1 PRIME 24 Jul 23:59:40 00:04:14 69° 107° (ESE) 00:08:54 437.505
VELOX 1 25 Jul 00:20:52 00:25:11 55° 71° (ENE) 00:29:33 145.980
ISS 25 Jul 00:24:40 00:27:49 43° 355° (N) 00:30:58 437.550
AIST 2D 25 Jul 00:26:42 00:30:10 64° 101° (E) 00:33:38 435.315
DX 1 25 Jul 00:27:55 00:31:24 24° 63° (ENE) 00:34:54 434.975-435.025
UNISAT 6 25 Jul 00:37:07 00:40:10 19° 299° (WNW) 00:43:10 437.425
PRISM 25 Jul 00:37:37 00:40:43 21° 298° (WNW) 00:43:49 437.425
Tancredo 1 25 Jul 00:50:29 00:53:21 46° 11° (N) 00:56:13 437.200
50 SAT 25 Jul 00:57:45 01:01:04 54° 73° (ENE) 01:04:26 437.505
DUCHIFAT 1 25 Jul 00:59:08 01:03:13 48° 100° (E) 01:07:14 145.980
RS-15 25 Jul 01:00:06 01:12:24 86° 52° (NE) 01:24:03 29.354- 29.394
POLYITAN 1 25 Jul 01:01:19 01:05:31 63° 101° (ESE) 01:09:40 437.675
nSIGHT-1 25 Jul 01:07:16 01:10:23 43° 5° (N) 01:13:30 .
O/OREOS (USA 219) 25 Jul 01:08:18 01:12:46 62° 61° (ENE) 01:17:14 437.305
UKube-1 25 Jul 01:10:11 01:14:13 40° 68° (ENE) 01:18:17 .
FO-29 25 Jul 01:12:36 01:17:06 18° 313° (NW) 01:21:21 435.910
SPROUT 25 Jul 01:13:27 01:17:29 39° 262° (W) 01:21:33 437.525
ESTCUBE 1 25 Jul 01:13:55 01:16:04 13° 272° (W) 01:18:13 437.505/2401.250
QB50P2 25 Jul 01:14:22 01:18:36 87° 285° (WNW) 01:22:49 145.880/145.840
EO-79 25 Jul 01:26:29 01:30:42 72° 287° (WNW) 01:34:53 145.935-145.965
NANOSAT C BR1 25 Jul 01:26:36 01:30:49 79° 287° (WNW) 01:34:59 145.865
BUGSAT 1 25 Jul 01:28:46 01:32:25 30° 96° (E) 01:36:00 437.445
M-CUBED/EXP-1 PRIME 25 Jul 01:34:59 01:38:12 19° 305° (NW) 01:41:28 437.505
Oscar 19 25 Jul 01:44:34 01:48:32 22° 92° (E) 01:52:28 437.125/150
VELOX 1 25 Jul 01:58:58 02:01:59 18° 269° (W) 02:05:02 145.980
ISS 25 Jul 02:01:23 02:04:37 60° 16° (NNE) 02:07:50 437.550
AIST 2D 25 Jul 02:01:44 02:02:54 11° 299° (WNW) 02:04:02 435.315
DX 1 25 Jul 02:03:13 02:07:21 42° 261° (W) 02:11:32 434.975-435.025
MOZHAYETS 4 25 Jul 02:07:10 02:09:46 15° 58° (ENE) 02:12:23
Gurwin Techsat 1B 25 Jul 02:09:30 02:13:46 24° 92° (E) 02:18:01 435.225
Tancredo 1 25 Jul 02:25:55 02:28:48 50° 209° (SSW) 02:31:41 437.200
50 SAT 25 Jul 02:33:07 02:34:08 11° 270° (W) 02:35:10 437.505
DUCHIFAT 1 25 Jul 02:35:32 02:38:33 20° 298° (WNW) 02:41:34 145.980
POLYITAN 1 25 Jul 02:38:16 02:40:50 16° 300° (WNW) 02:43:24 437.675
BEESAT 25 Jul 02:40:36 02:45:03 40° 67° (ENE) 02:49:30 436.000
nSIGHT-1 25 Jul 02:43:44 02:46:59 82° 202° (SSW) 02:50:12 .
UKube-1 25 Jul 02:46:55 02:50:23 23° 266° (W) 02:53:52 .
O/OREOS (USA 219) 25 Jul 02:48:52 02:51:40 16° 260° (W) 02:54:29 437.305
QB50P2 25 Jul 02:52:18 02:53:42 11° 303° (WNW) 02:55:07 145.880/145.840
ITUPSAT 1 25 Jul 02:53:34 02:58:11 51° 70° (ENE) 03:02:50 437.325
BUGSAT 1 25 Jul 03:04:11 03:07:44 28° 294° (WNW) 03:11:13 437.445
NANOSAT C BR1 25 Jul 03:05:03 03:05:46 10° 304° (NW) 03:06:30 145.865
RS-15 25 Jul 03:13:36 03:23:28 32° 257° (WSW) 03:32:58 29.354- 29.394
Oscar 19 25 Jul 03:23:09 03:28:13 58° 290° (WNW) 03:33:17 437.125/150
ITAMSAT 1 25 Jul 03:36:14 03:39:46 18° 90° (E) 03:43:18 435.822/435.867
ISS 25 Jul 03:37:59 03:40:59 35° 214° (SW) 03:44:00 437.550
MOZHAYETS 4 25 Jul 03:41:46 03:46:21 78° 257° (WSW) 03:50:57
Gurwin Techsat 1B 25 Jul 03:48:51 03:54:03 54° 291° (WNW) 03:59:13 435.225
YUBILEINY 25 Jul 03:57:39 04:02:08 15° 47° (NE) 04:06:35 435.215
CUBESAT XI-V 25 Jul 04:16:21 04:20:46 50° 71° (ENE) 04:25:15 437.345
BEESAT 25 Jul 04:18:52 04:22:56 27° 265° (W) 04:27:02 436.000
nSIGHT-1 25 Jul 04:20:51 04:22:58 16° 222° (SW) 04:25:05 .
AO-7 25 Jul 04:21:03 04:29:05 47° 100° (E) 04:37:01 .
KKS-1 25 Jul 04:23:21 04:27:27 36° 67° (ENE) 04:31:34 437.445
ITUPSAT 1 25 Jul 04:32:38 04:36:19 22° 268° (W) 04:39:59 437.325
STARS 25 Jul 04:53:15 04:57:12 32° 66° (ENE) 05:01:10 437.465
PCSat 25 Jul 04:58:36 05:03:05 27° 110° (ESE) 05:07:34 145.827
Oscar 19 25 Jul 05:05:29 05:06:30 11° 309° (NW) 05:07:30 437.125/150
ITAMSAT 1 25 Jul 05:14:34 05:19:46 70° 288° (WNW) 05:24:55 435.822/435.867
Gurwin Techsat 1B 25 Jul 05:32:04 05:32:52 10° 311° (NW) 05:33:41 435.225
DOVE 4 25 Jul 05:49:47 05:54:11 26° 91° (E) 05:58:27 437.250
YUBILEINY 25 Jul 05:52:43 06:01:22 56° 73° (ENE) 06:09:54 435.215
CUBESAT XI-V 25 Jul 05:55:02 05:58:27 20° 269° (W) 06:01:53 437.345
KKS-1 25 Jul 06:00:14 06:04:04 27° 265° (W) 06:07:56 437.445
AO-7 25 Jul 06:13:58 06:21:54 49° 301° (WNW) 06:29:47 .
STARS 25 Jul 06:29:36 06:33:31 30° 264° (W) 06:37:29 437.465
XW-2D 25 Jul 06:31:09 06:33:59 20° 93° (E) 06:36:49 145.860 - 145.880
PCSat 25 Jul 06:40:47 06:46:08 57° 309° (NW) 06:51:31 145.827
XW-2B 25 Jul 06:41:00 06:44:08 24° 95° (E) 06:47:16 145.730 - 145.750
SO-50 25 Jul 06:54:15 06:58:35 45° 121° (ESE) 07:02:53 436.795
ITAMSAT 1 25 Jul 06:56:05 06:58:19 13° 308° (NW) 07:00:31 435.822/435.867
XW-2C 25 Jul 06:58:03 07:01:36 38° 98° (E) 07:05:09 145.795 - 145.815
CUTE-I 25 Jul 07:02:35 07:07:35 38° 97° (E) 07:12:33 437.470
NUDT-PHONESAT 25 Jul 07:05:28 07:08:51 34° 97° (E) 07:12:14 437.300
STRAND 1 25 Jul 07:06:33 07:11:30 50° 69° (ENE) 07:16:29 437.568
HO-68 25 Jul 07:17:06 07:22:21 21° 89° (E) 07:27:34 435.675
KAITUO 1B 25 Jul 07:19:51 07:23:30 52° 100° (E) 07:27:09 145.475/437.950
LilacSat-2 25 Jul 07:21:25 07:25:13 77° 101° (E) 07:29:01 437.200
CUTE 1.7 + AOD 2 25 Jul 07:21:56 07:24:18 14° 89° (E) 07:26:40 437.475
DOVE 4 25 Jul 07:26:59 07:32:06 50° 290° (WNW) 07:37:03 437.250
SEEDS 25 Jul 07:34:20 07:36:10 12° 88° (E) 07:38:00 437.485
XW-2F 25 Jul 07:35:43 07:39:28 81° 285° (WNW) 07:43:14 145.980 - 146.000
YUBILEINY 25 Jul 07:50:02 07:57:51 38° 276° (W) 08:05:37 435.215
FO-29 25 Jul 07:57:21 08:03:09 24° 52° (NE) 08:08:57 435.910
UWE-3 25 Jul 08:01:26 08:02:42 11° 87° (E) 08:03:59 435.000/436.395/437.385
XW-2D 25 Jul 08:04:50 08:08:17 35° 290° (WNW) 08:11:44 145.860 - 145.880
AO-7 25 Jul 08:08:17 08:12:44 16° 325° (NW) 08:17:11 .
XW-2B 25 Jul 08:15:03 08:18:19 29° 292° (WNW) 08:21:35 145.730 - 145.750
AAUSAT CUBESAT 2 25 Jul 08:16:43 08:19:25 16° 90° (E) 08:22:06 437.432
XW-2A 25 Jul 08:20:56 08:23:58 31° 97° (E) 08:26:57 145.665 - 145.685
PCSat 25 Jul 08:27:11 08:30:44 17° 332° (NNW) 08:34:17 145.827
UNISAT 6 25 Jul 08:28:32 08:29:49 11° 56° (NE) 08:31:06 437.425
XW-2C 25 Jul 08:32:50 08:35:34 19° 295° (WNW) 08:38:18 145.795 - 145.815
SO-50 25 Jul 08:35:07 08:39:10 32° 321° (NW) 08:43:15 436.795
CUBEBUG 2 25 Jul 08:37:59 08:42:07 44° 98° (E) 08:46:07 437.445
NUDT-PHONESAT 25 Jul 08:39:48 08:42:34 20° 295° (WNW) 08:45:19 437.300
Oscar 11 25 Jul 08:40:20 08:41:57 12° 87° (E) 08:43:34 .
CUTE-I 25 Jul 08:42:45 08:47:35 35° 296° (WNW) 08:52:23 437.470
STRAND 1 25 Jul 08:46:45 08:50:57 25° 267° (W) 08:55:10 437.568
AO-73 25 Jul 08:53:22 08:56:27 20° 92° (E) 08:59:30 145.935
KAITUO 1B 25 Jul 08:54:59 08:57:07 15° 298° (WNW) 08:59:15 145.475/437.950
CUTE 1.7 + AOD 2 25 Jul 08:56:21 09:00:33 63° 287° (WNW) 09:04:45 437.475
LilacSat-2 25 Jul 08:57:43 08:58:57 11° 300° (WNW) 09:00:11 437.200
HO-68 25 Jul 09:03:44 09:10:56 84° 290° (WNW) 09:18:05 435.675
SEEDS 25 Jul 09:08:08 09:12:21 73° 286° (WNW) 09:16:33 437.485
TIGRISAT 25 Jul 09:09:57 09:13:36 24° 64° (ENE) 09:17:12 435.000
M-CUBED/EXP-1 PRIME 25 Jul 09:16:07 09:18:43 18° 54° (NE) 09:21:27 437.505
UWE-3 25 Jul 09:35:33 09:39:46 78° 285° (WNW) 09:43:54 435.000/436.395/437.385
FO-29 25 Jul 09:39:22 09:47:06 82° 72° (ENE) 09:55:00 435.910
ZACube-1 25 Jul 09:48:42 09:52:53 83° 103° (ESE) 09:57:01 437.345
AAUSAT CUBESAT 2 25 Jul 09:51:07 09:55:12 53° 288° (WNW) 09:59:16 437.432
PRISM 25 Jul 09:53:58 09:57:56 52° 71° (ENE) 10:01:59 437.425
XW-2A 25 Jul 09:54:08 09:56:31 18° 294° (WNW) 09:58:52 145.665 - 145.685
UNISAT 6 25 Jul 10:01:07 10:05:45 73° 74° (ENE) 10:10:18 437.425
Oscar 11 25 Jul 10:14:19 10:18:39 79° 286° (WNW) 10:22:58 .
CUBEBUG 2 25 Jul 10:15:13 10:18:28 21° 297° (WNW) 10:21:38 437.445
SO-50 25 Jul 10:19:15 10:21:01 12° 344° (NNW) 10:22:47 436.795
POLYITAN 1 25 Jul 10:25:37 10:26:01 10° 56° (NE) 10:26:26 437.675
AO-73 25 Jul 10:28:59 10:32:55 42° 290° (WNW) 10:36:48 145.935
QB50P2 25 Jul 10:36:38 10:38:53 14° 59° (ENE) 10:41:10 145.880/145.840
TIGRISAT 25 Jul 10:45:34 10:50:02 46° 261° (W) 10:54:26 435.000
EO-79 25 Jul 10:48:01 10:50:44 17° 61° (ENE) 10:53:27 145.935-145.965
NANOSAT C BR1 25 Jul 10:48:08 10:50:35 15° 60° (ENE) 10:53:04 145.865
M-CUBED/EXP-1 PRIME 25 Jul 10:49:07 10:52:43 53° 254° (WSW) 10:56:41 437.505
DELFI C3 25 Jul 10:50:48 10:54:49 71° 101° (ESE) 10:58:49 145.870
HO-68 25 Jul 10:52:35 10:57:43 22° 310° (NW) 11:02:51 435.675
AIST 2D 25 Jul 11:04:12 11:07:28 38° 71° (ENE) 11:10:43 435.315
EO-88 25 Jul 11:13:28 11:17:08 83° 106° (ESE) 11:20:46 145.990 - 145.960
UWE-3 25 Jul 11:15:11 11:15:27 10° 304° (NW) 11:15:42 435.000/436.395/437.385
LO-87 25 Jul 11:18:00 11:19:49 13° 90° (E) 11:21:37 145.935 - 145.965
ESTCUBE 1 25 Jul 11:24:49 11:26:45 12° 87° (E) 11:28:41 437.505/2401.250
FO-29 25 Jul 11:26:46 11:32:53 25° 273° (W) 11:39:09 435.910
ZACube-1 25 Jul 11:26:50 11:28:33 12° 302° (WNW) 11:30:16 437.345
NO-84 25 Jul 11:27:15 11:29:49 25° 134° (SE) 11:32:34 435.350 FM
PRISM 25 Jul 11:30:54 11:33:32 16° 269° (W) 11:36:12 437.425
UNISAT 6 25 Jul 11:40:25 11:42:56 14° 271° (W) 11:45:28 437.425
Oscar 11 25 Jul 11:52:57 11:54:02 11° 304° (NW) 11:55:07 .
DUCHIFAT 1 25 Jul 11:53:49 11:57:58 56° 72° (ENE) 12:02:08 145.980
POLYITAN 1 25 Jul 11:56:46 12:01:01 74° 75° (ENE) 12:05:18 437.675
PCSat 25 Jul 11:59:08 12:02:25 16° 25° (NNE) 12:05:43 145.827
Gurwin Techsat 1B 25 Jul 11:59:48 12:00:09 10° 49° (NE) 12:00:29 435.225
SO-50 25 Jul 12:02:34 12:03:32 11° 10° (N) 12:04:30 436.795
QB50P2 25 Jul 12:09:51 12:14:07 75° 256° (WSW) 12:18:24 145.880/145.840
BUGSAT 1 25 Jul 12:21:23 12:25:13 35° 68° (ENE) 12:29:04 437.445
NANOSAT C BR1 25 Jul 12:21:34 12:25:48 68° 257° (WSW) 12:30:03 145.865
EO-79 25 Jul 12:21:49 12:26:03 62° 259° (W) 12:30:18 145.935-145.965
DELFI C3 25 Jul 12:27:06 12:29:04 13° 300° (WNW) 12:31:03 145.870
AO-85 25 Jul 12:28:17 12:31:00 18° 114° (ESE) 12:33:43 145.980
AIST 2D 25 Jul 12:38:39 12:40:50 16° 268° (W) 12:43:03 435.315
LO-87 25 Jul 12:50:02 12:53:33 50° 287° (WNW) 12:57:01 145.935 - 145.965
SPROUT 25 Jul 12:55:28 12:59:05 26° 94° (E) 13:02:41 437.525
ESTCUBE 1 25 Jul 12:59:36 13:04:09 81° 286° (WNW) 13:08:40 437.505/2401.250
BEESAT 3 25 Jul 13:00:51 13:04:33 37° 119° (ESE) 13:08:17 437.485
NO-84 25 Jul 13:03:56 13:07:04 52° 336° (NNW) 13:10:28 435.350 FM
Oscar 19 25 Jul 13:04:37 13:09:26 45° 68° (ENE) 13:14:19 437.125/150
DUCHIFAT 1 25 Jul 13:31:17 13:33:59 16° 270° (W) 13:36:40 145.980
Gurwin Techsat 1B 25 Jul 13:33:48 13:38:57 53° 69° (ENE) 13:44:08 435.225
AO-7 25 Jul 13:33:52 13:40:16 25° 46° (NE) 13:46:40 .
POLYITAN 1 25 Jul 13:35:28 13:37:19 13° 272° (W) 13:39:11 437.675
BEESAT 2 25 Jul 13:41:43 13:45:21 34° 119° (ESE) 13:49:03 435.950
PCSat 25 Jul 13:41:50 13:47:09 50° 49° (NE) 13:52:24 145.827
SO-50 25 Jul 13:41:57 13:45:37 24° 34° (NE) 13:49:19 436.795
VELOX 1 25 Jul 13:43:21 13:47:49 68° 102° (ESE) 13:52:15 145.980
DX 1 25 Jul 13:47:49 13:51:29 25° 94° (E) 13:55:06 434.975-435.025
50 SAT 25 Jul 13:48:51 13:52:00 32° 98° (E) 13:55:06 437.505
BUGSAT 1 25 Jul 13:57:04 14:00:38 26° 265° (W) 14:04:12 437.445
AO-85 25 Jul 14:07:09 14:11:02 54° 313° (NW) 14:14:54 145.980
UKube-1 25 Jul 14:29:09 14:33:18 43° 99° (E) 14:37:25 .
SPROUT 25 Jul 14:31:10 14:35:03 34° 292° (WNW) 14:38:53 437.525
ESTCUBE 1 25 Jul 14:38:29 14:40:13 12° 304° (NW) 14:41:56 437.505/2401.250
BEESAT 3 25 Jul 14:38:33 14:42:10 31° 319° (NW) 14:45:50 437.485
NO-84 25 Jul 14:42:09 14:45:04 26° 357° (N) 14:48:14 435.350 FM
Oscar 19 25 Jul 14:44:36 14:48:57 28° 266° (W) 14:53:19 437.125/150
ITAMSAT 1 25 Jul 14:57:08 15:02:00 40° 66° (ENE) 15:06:52 435.822/435.867
Gurwin Techsat 1B 25 Jul 15:14:54 15:19:12 25° 268° (W) 15:23:32 435.225
BEESAT 2 25 Jul 15:19:27 15:23:07 33° 318° (NW) 15:26:50 435.950
VELOX 1 25 Jul 15:20:56 15:23:46 17° 301° (WNW) 15:26:36 145.980
SO-50 25 Jul 15:22:00 15:26:32 73° 235° (SW) 15:31:06 436.795
50 SAT 25 Jul 15:22:01 15:24:32 19° 295° (WNW) 15:27:02 437.505
AO-7 25 Jul 15:23:34 15:31:56 83° 69° (ENE) 15:40:23 .
DX 1 25 Jul 15:23:41 15:27:46 38° 292° (WNW) 15:31:49 434.975-435.025
O/OREOS (USA 219) 25 Jul 15:24:22 15:28:25 35° 107° (ESE) 15:32:31 437.305
PCSat 25 Jul 15:25:36 15:30:21 31° 249° (WSW) 15:35:03 145.827
RS-15 25 Jul 15:27:37 15:38:24 39° 107° (ESE) 15:49:17 29.354- 29.394
MOZHAYETS 4 25 Jul 15:33:52 15:37:07 19° 91° (E) 15:40:20
AO-85 25 Jul 15:50:26 15:52:17 13° 335° (NNW) 15:54:10 145.980
UKube-1 25 Jul 16:05:40 16:09:06 23° 297° (WNW) 16:12:30 .
BEESAT 25 Jul 16:14:15 16:18:57 57° 101° (E) 16:23:37 436.000
NO-84 25 Jul 16:19:52 16:23:13 36° 17° (NNE) 16:26:51 435.350 FM
BEESAT 3 25 Jul 16:20:36 16:20:59 10° 341° (NNW) 16:21:22 437.485
ITUPSAT 1 25 Jul 16:27:51 16:32:38 74° 104° (ESE) 16:37:22 437.325
ITAMSAT 1 25 Jul 16:36:53 16:41:32 32° 264° (W) 16:46:13 435.822/435.867
CUTE-I 25 Jul 16:50:42 16:53:54 16° 55° (NE) 16:57:06 437.470
DOVE 4 25 Jul 16:58:02 17:02:34 36° 66° (ENE) 17:07:18 437.250
BEESAT 2 25 Jul 17:01:14 17:02:04 10° 340° (NNW) 17:02:55 435.950
O/OREOS (USA 219) 25 Jul 17:03:54 17:07:52 30° 306° (NW) 17:11:52 437.305
SO-50 25 Jul 17:05:31 17:06:11 10° 252° (WSW) 17:06:52 436.795
